| time (UTC) | temp F | wind direction | speed MPH | gust MPH | rain 1hr in | rain 24hr in | rain mn in | humidity % | barometer mb |
| 20260903124602 | 73 | 150 | 5.0 | 10.0 | 0.00 | 0.00 | 0.00 | 20 | 1006.5 |
| 20260903123056 | 73 | 143 | 3.0 | 8.0 | 0.00 | 0.00 | 0.00 | 20 | 1006.5 |
| 20260903121600 | 73 | 194 | 4.0 | 10.0 | 0.00 | 0.00 | 0.00 | 21 | 1006.4 |
| 20260903120057 | 73 | 143 | 5.0 | 9.0 | 0.00 | 0.00 | 0.00 | 21 | 1006.3 |
| 20260903114557 | 73 | 133 | 4.0 | 9.0 | 0.00 | 0.00 | 0.00 | 21 | 1006.3 |
| 20260903113057 | 73 | 134 | 3.0 | 8.0 | 0.00 | 0.00 | 0.00 | 21 | 1006.2 |
| 20260903111556 | 73 | 161 | 3.0 | 10.0 | 0.00 | 0.00 | 0.00 | 22 | 1006.3 |
| 20260903110056 | 73 | 172 | 7.0 | 14.0 | 0.00 | 0.00 | 0.00 | 22 | 1006.3 |
| 20260903104601 | 73 | 163 | 6.0 | 10.0 | 0.00 | 0.00 | 0.00 | 22 | 1006.5 |
| 20260903103057 | 74 | 150 | 5.0 | 8.0 | 0.00 | 0.00 | 0.00 | 22 | 1006.5 |
| 20260903101558 | 74 | 117 | 5.0 | 10.0 | 0.00 | 0.00 | 0.00 | 22 | 1006.6 |
| 20260903100057 | 74 | 173 | 7.0 | 12.0 | 0.00 | 0.00 | 0.00 | 22 | 1006.5 |
| 20260903094607 | 74 | 138 | 9.0 | 14.0 | 0.00 | 0.00 | 0.00 | 22 | 1006.5 |
| 20260903093056 | 75 | 211 | 5.0 | 11.0 | 0.00 | 0.00 | 0.00 | 22 | 1006.4 |
| 20260903091603 | 75 | 157 | 5.0 | 11.0 | 0.00 | 0.00 | 0.00 | 21 | 1006.5 |
| 20260903090057 | 75 | 172 | 5.0 | 10.0 | 0.00 | 0.00 | 0.00 | 21 | 1006.6 |
| 20260903084559 | 76 | 208 | 6.0 | 19.0 | 0.00 | 0.00 | 0.00 | 20 | 1006.6 |
| 20260903083101 | 76 | 207 | 5.0 | 13.0 | 0.00 | 0.00 | 0.00 | 19 | 1006.7 |
| 20260903081556 | 77 | 144 | 8.0 | 17.0 | 0.00 | 0.00 | 0.00 | 18 | 1006.6 |
| 20260903080100 | 77 | 146 | 6.0 | 11.0 | 0.00 | 0.00 | 0.00 | 17 | 1006.8 |
| 20260903074600 | 77 | 150 | 5.0 | 11.0 | 0.00 | 0.00 | 0.00 | 17 | 1006.9 |
| 20260903073114 | 78 | 147 | 6.0 | 11.0 | 0.00 | 0.00 | 0.00 | 15 | 1006.9 |
| 20260903071601 | 78 | 123 | 6.0 | 10.0 | 0.00 | 0.00 | 0.00 | 14 | 1006.8 |
| 20260903070107 | 79 | 127 | 5.0 | 11.0 | 0.00 | 0.00 | 0.00 | 12 | 1006.6 |
| 20260903064602 | 79 | 155 | 6.0 | 10.0 | 0.00 | 0.00 | 0.00 | 12 | 1006.6 |
| 20260903063001 | 79 | 130 | 4.0 | 7.0 | 0.00 | 0.00 | 0.00 | 11 | 1006.3 |
| 20260903061600 | 80 | 119 | 5.0 | 9.0 | 0.00 | 0.00 | 0.00 | 11 | 1006.3 |
| 20260903060100 | 80 | 151 | 2.0 | 10.0 | 0.00 | 0.00 | 0.00 | 11 | 1006.1 |
| 20260903060001 | 80 | 180 | 2.0 | 10.0 | 0.00 | 0.00 | 0.00 | 11 | 1006.1 |
| 20260903054559 | 81 | 246 | 4.0 | 9.0 | 0.00 | 0.00 | 0.00 | 10 | 1006.2 |
| 20260903053059 | 81 | 176 | 4.0 | 9.0 | 0.00 | 0.00 | 0.00 | 10 | 1006.2 |
| 20260903051601 | 82 | 188 | 4.0 | 10.0 | 0.00 | 0.00 | 0.00 | 10 | 1006.4 |
| 20260903050059 | 82 | 159 | 5.0 | 11.0 | 0.00 | 0.00 | 0.00 | 9 | 1006.5 |
| 20260903044559 | 82 | 126 | 3.0 | 7.0 | 0.00 | 0.00 | 0.00 | 10 | 1006.4 |
| 20260903043108 | 82 | 168 | 3.0 | 6.0 | 0.00 | 0.00 | 0.00 | 10 | 1006.4 |
| 20260903041559 | 82 | 133 | 3.0 | 9.0 | 0.00 | 0.00 | 0.00 | 10 | 1006.2 |
| 20260903040002 | 82 | 135 | 4.0 | 7.0 | 0.00 | 0.00 | 0.00 | 9 | 1006.1 |
| 20260903034559 | 83 | 137 | 3.0 | 8.0 | 0.00 | 0.00 | 0.00 | 9 | 1006.0 |
| 20260903034503 | 83 | 148 | 4.0 | 8.0 | 0.00 | 0.00 | 0.00 | 9 | 1006.0 |
| 20260903033102 | 83 | 134 | 4.0 | 11.0 | 0.00 | 0.00 | 0.00 | 9 | 1005.9 |
| 20260903031559 | 84 | 159 | 6.0 | 11.0 | 0.00 | 0.00 | 0.00 | 9 | 1005.8 |
| 20260903031501 | 84 | 124 | 6.0 | 11.0 | 0.00 | 0.00 | 0.00 | 9 | 1005.8 |
| 20260903030109 | 84 | 137 | 5.0 | 7.0 | 0.00 | 0.00 | 0.00 | 8 | 1005.8 |
| 20260903024559 | 85 | 160 | 2.0 | 9.0 | 0.00 | 0.00 | 0.00 | 8 | 1005.7 |
| 20260903023105 | 86 | 198 | 5.0 | 11.0 | 0.00 | 0.00 | 0.00 | 8 | 1005.6 |
| 20260903021558 | 86 | 166 | 7.0 | 14.0 | 0.00 | 0.00 | 0.00 | 7 | 1005.5 |
| 20260903020100 | 87 | 188 | 6.0 | 14.0 | 0.00 | 0.00 | 0.00 | 7 | 1005.5 |
| 20260903014601 | 88 | 174 | 7.0 | 16.0 | 0.00 | 0.00 | 0.00 | 7 | 1005.5 |
| 20260903013059 | 89 | 213 | 7.0 | 16.0 | 0.00 | 0.00 | 0.00 | 7 | 1005.6 |
| 20260903011600 | 90 | 185 | 9.0 | 20.0 | 0.00 | 0.00 | 0.00 | 6 | 1005.5 |
| 20260903010058 | 91 | 227 | 6.0 | 13.0 | 0.00 | 0.00 | 0.00 | 6 | 1005.4 |
| 20260903010001 | 91 | 138 | 7.0 | 0.0 | 1.28 | 0.28 | 0.00 | 5 | 1005.4 |
| 20260903004609 | 92 | 208 | 6.0 | 17.0 | 0.00 | 0.00 | 0.00 | 5 | 1005.5 |
| 20260903003058 | 93 | 207 | 8.0 | 15.0 | 0.00 | 0.00 | 0.00 | 5 | 1005.5 |
| 20260903001600 | 93 | 196 | 5.0 | 14.0 | 0.00 | 0.00 | 0.00 | 5 | 1005.6 |
| 20260903000058 | 94 | 192 | 8.0 | 21.0 | 0.00 | 0.00 | 0.00 | 5 | 1005.6 |
| 20260902234558 | 94 | 200 | 8.0 | 14.0 | 0.00 | 0.00 | 0.00 | 5 | 1005.7 |
| 20260902233103 | 95 | 235 | 6.0 | 15.0 | 0.00 | 0.00 | 0.00 | 4 | 1005.7 |
| 20260902231600 | 94 | 193 | 7.0 | 18.0 | 0.00 | 0.00 | 0.00 | 4 | 1005.8 |
| 20260902230105 | 95 | 182 | 6.0 | 16.0 | 0.00 | 0.00 | 0.00 | 4 | 1005.9 |
| 20260902230000 | 95 | 178 | 8.0 | 16.0 | 0.00 | 0.00 | 0.00 | 4 | 1005.8 |
| 20260902224559 | 95 | 188 | 7.0 | 19.0 | 0.00 | 0.00 | 0.00 | 4 | 1006.2 |
| 20260902223118 | 96 | 173 | 12.0 | 16.0 | 0.00 | 0.00 | 0.00 | 4 | 1006.4 |
| 20260902221558 | 96 | 151 | 5.0 | 16.0 | 0.00 | 0.00 | 0.00 | 4 | 1006.5 |
| 20260902214558 | 96 | 175 | 7.0 | 15.0 | 0.00 | 0.00 | 0.00 | 5 | 1006.7 |
| 20260902213058 | 95 | 201 | 6.0 | 13.0 | 0.00 | 0.00 | 0.00 | 5 | 1007.0 |
| 20260902211558 | 95 | 200 | 7.0 | 21.0 | 0.00 | 0.00 | 0.00 | 5 | 1007.1 |
| 20260902210057 | 94 | 230 | 8.0 | 20.0 | 0.00 | 0.00 | 0.00 | 5 | 1007.4 |
| 20260902204635 | 94 | 240 | 6.0 | 19.0 | 0.00 | 0.00 | 0.00 | 5 | 1007.5 |
| 20260902203058 | 93 | 190 | 9.0 | 16.0 | 0.00 | 0.00 | 0.00 | 5 | 1007.7 |
| 20260902201600 | 93 | 146 | 7.0 | 22.0 | 0.00 | 0.00 | 0.00 | 6 | 1007.8 |
| 20260902194558 | 92 | 215 | 8.0 | 20.0 | 0.00 | 0.00 | 0.00 | 6 | 1008.2 |
| 20260902193058 | 91 | 229 | 9.0 | 25.0 | 0.00 | 0.00 | 0.00 | 7 | 1008.4 |
| 20260902191558 | 90 | 191 | 7.0 | 19.0 | 0.00 | 0.00 | 0.00 | 7 | 1008.8 |
| 20260902190101 | 90 | 217 | 8.0 | 20.0 | 0.00 | 0.00 | 0.00 | 8 | 1009.0 |
| 20260902184558 | 89 | 234 | 12.0 | 18.0 | 0.00 | 0.00 | 0.00 | 8 | 1009.2 |
| 20260902183108 | 88 | 146 | 10.0 | 19.0 | 0.00 | 0.00 | 0.00 | 8 | 1009.1 |
| 20260902181612 | 87 | 239 | 12.0 | 23.0 | 0.00 | 0.00 | 0.00 | 8 | 1009.1 |
| 20260902180058 | 87 | 148 | 8.0 | 24.0 | 0.00 | 0.00 | 0.00 | 8 | 1009.2 |
| 20260902174600 | 86 | 197 | 7.0 | 15.0 | 0.00 | 0.00 | 0.00 | 9 | 1009.4 |
| 20260902173115 | 86 | 184 | 7.0 | 17.0 | 0.00 | 0.00 | 0.00 | 9 | 1009.4 |
| 20260902171558 | 84 | 194 | 9.0 | 21.0 | 0.00 | 0.00 | 0.00 | 10 | 1009.5 |
| 20260902170058 | 83 | 236 | 8.0 | 16.0 | 0.00 | 0.00 | 0.00 | 10 | 1009.4 |
| 20260902164605 | 83 | 170 | 8.0 | 16.0 | 0.00 | 0.00 | 0.00 | 10 | 1009.5 |
| 20260902163102 | 82 | 166 | 6.0 | 14.0 | 0.00 | 0.00 | 0.00 | 10 | 1009.4 |
| 20260902161600 | 80 | 169 | 8.0 | 15.0 | 0.00 | 0.00 | 0.00 | 11 | 1009.3 |
| 20260902160057 | 80 | 223 | 7.0 | 16.0 | 0.00 | 0.00 | 0.00 | 12 | 1009.2 |
| 20260902154557 | 79 | 215 | 9.0 | 17.0 | 0.00 | 0.00 | 0.00 | 12 | 1009.1 |
| 20260902153106 | 77 | 234 | 6.0 | 16.0 | 0.00 | 0.00 | 0.00 | 13 | 1009.1 |
| 20260902151557 | 76 | 235 | 8.0 | 21.0 | 0.00 | 0.00 | 0.00 | 13 | 1008.9 |
| 20260902150057 | 75 | 196 | 9.0 | 19.0 | 0.00 | 0.00 | 0.00 | 13 | 1008.8 |
| 20260902144557 | 74 | 211 | 8.0 | 14.0 | 0.00 | 0.00 | 0.00 | 14 | 1008.6 |
| 20260902143059 | 73 | 227 | 7.0 | 13.0 | 0.00 | 0.00 | 0.00 | 14 | 1008.7 |
| 20260902141558 | 73 | 161 | 6.0 | 14.0 | 0.00 | 0.00 | 0.00 | 14 | 1008.6 |
| 20260902140057 | 72 | 186 | 5.0 | 10.0 | 0.00 | 0.00 | 0.00 | 14 | 1008.7 |
| 20260902134600 | 72 | 182 | 3.0 | 8.0 | 0.00 | 0.00 | 0.00 | 13 | 1008.6 |
| 20260902133105 | 72 | 172 | 7.0 | 10.0 | 0.00 | 0.00 | 0.00 | 13 | 1008.4 |
| 20260902131558 | 73 | 197 | 4.0 | 9.0 | 0.00 | 0.00 | 0.00 | 13 | 1008.1 |
| 20260902130104 | 72 | 159 | 3.0 | 10.0 | 0.00 | 0.00 | 0.00 | 13 | 1008.0 |